Current Version              Previous Version:    01  02  03  04  05  06  07  08  09  10  11  12  13  14  15  16  17  18  19  20  21  22  23  24  25  26  27  28  29  30  
   31  32  33  34  35  36  37  38  39  40  41  42  43  44  45  46  47  48  49  50  51  52  53  54  55  56  57  58  59  60  

[Printable]
390
ASUS44 KLUB 221401
RWRTX
WEST TEXAS WEATHER ROUNDUP
NATIONAL WEATHER SERVICE LUBBOCK TX
900 AM CDT MON SEP 22 2014

NOTE: "FAIR" INDICATES FEW OR NO CLOUDS BELOW 12,000 FEET WITH NO
SIGNIFICANT WEATHER AND/OR OBSTRUCTIONS TO VISIBILITY.

TXZ004-006>008-010-012-014-016-OKZ002-221500-
TEXAS PANHANDLE/OKLAHOMA PANHANDLE

CITY           SKY/WX    TMP DP  RH WIND       PRES   REMARKS
AMARILLO       CLOUDY    60  54  80 SE14      30.33R
BORGER         CLOUDY    64  52  64 E7        30.32R
CANADIAN       CLOUDY    60  55  84 SE3       30.33R
DALHART        CLOUDY    64  51  62 SE8       30.34R
DUMAS          PTSUNNY   60  51  73 SE9       30.33R
GUYMON         CLOUDY    62  47  57 SE7       30.31S
HEREFORD       CLOUDY    63  57  82 SE8       30.34R
PAMPA          MOSUNNY   60  47  62 SE12      30.34R
PERRYTON       CLOUDY    62  46  55 SE12      30.33R
$$

TXZ026-029-035-045-048-221500-
SOUTHERN PANHANDLE/SOUTH PLAINS/ROLLING PLAINS

CITY           SKY/WX    TMP DP  RH WIND       PRES   REMARKS
CHILDRESS      CLOUDY    69  50  50 E9        30.30R
SEMINOLE       CLOUDY    66  65  96 CALM      30.29R FOG
LUBBOCK        CLOUDY    64  58  80 E12       30.30R
PLAINVIEW      CLOUDY    62  55  76 E10       30.31R
SNYDER         CLOUDY    69  66  92 NE12G17   30.26R
$$

TXZ052-054-060>062-072-078-127-140-154-169-221500-
PERMIAN BASIN/CONCHO VALLEY/BIG COUNTRY/EDWARDS PLATEAU

CITY           SKY/WX    TMP DP  RH WIND       PRES   REMARKS
ABILENE        MOSUNNY   72  66  81 E10       30.23R
BIG SPRING     CLOUDY    70  67  92 NE12      30.26R
BRADY          MOSUNNY   72  66  83 NE6       30.21R
JUNCTION       MOSUNNY   67  64  90 CALM      30.20R
MIDLAND        CLOUDY    70  68  93 E9        30.24R FOG
ODESSA         CLOUDY    70  67  90 E7        30.25R FOG
SAN ANGELO     PTSUNNY   72  67  84 CALM      30.21R
SONORA         MOSUNNY   66  63  88 CALM      30.25S
SWEETWATER     CLOUDY    68  68 100 NE6       30.27R
WINK           CLOUDY    71  69  93 E5        30.21R
$$

TXZ055-058-074-075-080-082-221500-
FAR WEST/SOUTHWEST MOUNTAINS/TRANS PECOS

CITY           SKY/WX    TMP DP  RH WIND       PRES   REMARKS
ALPINE         CLOUDY    67  62  84 CALM      30.34R
DRYDEN           N/A     77  69  76 E10       30.18R
EL PASO        CLOUDY    67  65  93 NW8       30.20R
FORT STOCKTON  CLOUDY    70  68  93 E8        30.22R
GUADALUPE PASS LGT RAIN  62  62 100 E21       30.32  VSB<1/4
MARFA          CLOUDY    64  61  88 E8        30.32R
PRESIDIO       CLOUDY    75  64  70 NE13      30.17R
$$

TXZ014-016-019-021>030-083-221500
TEXAS TECH WEST TEXAS MESONET/TEXAS PANHANDLE/NORTHERN SOUTH PLAINS

CITY           SKY/WX    TMP DP  RH WIND       PRES   REMARKS
ABERNATHY 5ENE   N/A     63  55  77 E10       30.32R
AMARILLO 9NNE    N/A     62  53  72 SE7       30.32R
AMARILLO 7SSE    N/A     60  56  87 SE6       30.34R
AMHERST 1NE      N/A     62  61  97 E12       30.32R
BOOTLEG 11WNW    N/A     59  58  96 E12       30.36S
CANADIAN 6E      N/A     60  50  69 E7        30.31R
CAPROCK CYN SP   N/A     64  56  74 NE5       30.32R
CHILDRESS 2NNE   N/A     67  52  58 E8        30.29R
CLARENDON 2WSW   N/A     64  51  62 E7        30.32R
DIMMITT 2NE      N/A     60  53  77 E10       30.33R
FLOYDADA 2NNE    N/A     62  54  74 E9        30.31R
FRIONA 2NE       N/A     60  57  90 SE12      30.35R
GOODLETT 3W      N/A     68  51  55 NE9       30.27R
HART 3N          N/A     61  53  74 E9        30.33R
HEREFORD 2NW     N/A     61  53  75 SE7       30.33R
MCLEAN 1E        N/A     61  49  65 E10       30.32R
MEMPHIS 1NE      N/A     67  53  61 NE6       30.30S
MULESHOE 2SSW    N/A     62  61  97 E10       30.31S
OLTON 6S         N/A     62  56  79 E14       30.31R
PALO DURO SP     N/A     62  53  72 SE6       30.34R
PAMPA 2E         N/A     59  50  70 SE10      30.33R
PLAINVIEW 1S     N/A     62  55  80 E7        30.31R
SILVERTON 7ESE   N/A     63  55  73 E10       30.32R
TULIA 2ENE       N/A     61  55  79 E12       30.33S
TURKEY 2WSW      N/A     65  57  75 E5        30.30S
UMBARGER 3NNE    N/A     61  54  77 SE9       30.34R
$$

TXZ033>036-039>041-045>048-221500
TEXAS TECH WEST TEXAS MESONET/SOUTH PLAINS

CITY           SKY/WX    TMP DP  RH WIND       PRES   REMARKS
AIKEN 3WSW       N/A     62  55  80 E7        30.33R
ANTON 6SSW       N/A     63  62  95 E13       30.30R
BROWNFIELD 2S    N/A     64  63  94 E12       30.28S
DENVR CTY 7WNW   N/A     64  62  93 E8        30.28R
GAIL 2ESE        N/A     68  65  92 NE6       30.25R
LEVELLAND 4S     N/A     64  62  93 E9        30.30R
LUBBOCK 3WNW     N/A     64  59  85 E9        30.31R
MORTON 1ENE      N/A     63  62  97 E10       30.31R
PLAINS 3N        N/A     64  63  96 E10       30.30R
RALLS 1SE        N/A     64  56  76 E12       30.31R
REESE CENTER     N/A     63  61  93 E16       30.30R
SEMINOLE 2NNE    N/A     66  64  93 E8        30.27R
SLATON 2NE       N/A     63  60  88 E8        30.30R
SNYDER 3E        N/A     68  66  93 NE9       30.24R
SUNDOWN 8SW      N/A     64  63  97 E8        30.30R
TAHOKA 3NNE      N/A     64  62  94 NE12      30.28R
WOLFFORTH 6SSW   N/A     65  64  97 E12       30.30R
$$

TXZ031-032-036>038-042>044-221500-
TEXAS TECH WEST TEXAS MESONET/ROLLING PLAINS

CITY           SKY/WX    TMP DP  RH WIND       PRES   REMARKS
ASPERMONT 3NE    N/A     69  61  75 NE6       30.25R
FLUVANNA 3WNW    N/A     66  63  91 NE8       30.26R
GRAHAM 5SSW      N/A     64  62  95 NE13      30.27R
GUTHRIE 10WSW    N/A     67  57  72 N7        30.26R
HASKELL 1NW      N/A     69  56  63 E10       30.23R
JAYTON 1SSE      N/A     67  60  76 NE8       30.26R
KNOX CITY 3NW    N/A     69  56  64 NE7       30.25R
LK A HENRY 1NW   N/A     67  63  87 NE7       30.26R
NORTHFIELD 1S    N/A     66  58  76 NE3       30.30R
ODELL 4ENE       N/A     67  52  58 NE8       30.28R
PADUCAH 10SW     N/A     65  57  75 NE7       30.28R
POST 1NE         N/A     64  63  97 NE9       30.28R
RRING SPRGS 3N   N/A     64  56  76 NE6       30.30R
SEYMOUR 3NW      N/A     68  54  60 NE7       30.24R
SPUR 1W          N/A     66  56  70 NE8       30.27R
WEINERT 2NNE     N/A     69  58  66 E8        30.24R
WHITE RVR 6NE    N/A     65  55  69 NE9       30.29R
$$

TXZ052-054-060>062-072-078-127-140-154-169-221500-
TEXAS TECH WEST TEXAS MESONET/PERMIAN BASIN/
CONCHO VALLEY/BIG COUNTRY/EDWARDS PLATEAU

CITY           SKY/WX    TMP DP  RH WIND       PRES   REMARKS
COYANOSA 2N      N/A     71  70  98 NE3       30.21R
JUNCTION 1SSW    N/A     66  63  92 CALM      30.21R
MERTZON 3NNE     N/A     72  66  82 CALM      30.23R
SAN ANGELO 7NW   N/A     72  63  74 NE2       30.21R
STRLNG CT 4WSW   N/A     70  68  94 CALM      30.24R
ST LAWRNCE 5SW   N/A     69  67  92 E6        30.24R
SWEETWATR 11SW   N/A     67  67  99 NE7       30.25R
WALL 1E          N/A     69  65  89 NE2       30.21R
$$

TXZ055-058-074-075-080-082-221500-
TEXAS TECH WEST TEXAS MESONET/FAR WEST/SOUTHWEST MOUNTAINS/TRANS PECOS

CITY           SKY/WX    TMP DP  RH WIND       PRES   REMARKS
PRSMN GAP BBNP   N/A     71  68  89 NE10      30.19R
GUADLPE MTN NP   N/A     61  60  96 E8        30.33S
$$